[Date Prev][Date Next][Thread Prev][Thread Next] - [Date Index][Thread Index][Author Index]
2 Line ISS Keps 3-25
- Subject: [sarex] 2 Line ISS Keps 3-25
- From: "Dave Larsen PhD" <doc@xxxxxxxxxxx>
- Date: Fri, 25 Mar 2005 02:05:38 -0800
ISS
1 25544U 98067A 05084.19470068 .00016285 00000-0 12993-3 0 891
2 25544 051.6482 330.6457 0003589 231.7241 269.3845 15.71308576362473
----
Via the sarex mailing list at AMSAT.ORG courtesy of AMSAT-NA.
To unsubscribe, send "unsubscribe sarex" to Majordomo@amsat.org
AMSAT Home